Location: Innerarity Island Observatory
(30.3139°N, 87.4867°W)
Time: 13:58:49
(UTC-05:00)

JAS-2 - Visible Passes

Search period start: 26 June 2016 00:00
Search period end: 06 July 2016 00:00
Orbit: 800 x 1321 km, 98.6° (Epoch: 25 June)

Date Brightness Start Highest point End Pass type
(mag) Time Alt. Az. Time Alt. Az. Time Alt. Az.
26 Jun 11.7 00:19:07 10° ENE 00:19:19 10° ENE 00:19:19 10° ENE visible
26 Jun 10.3 02:02:01 10° N 02:05:48 37° NNW 02:05:48 37° NNW visible
27 Jun 10.8 01:07:02 10° NNE 01:09:58 29° NE 01:09:58 29° NE visible
27 Jun 11.2 02:53:46 10° NNW 02:56:26 15° WNW 02:56:26 15° WNW visible
28 Jun 10.4 01:57:01 10° N 02:00:37 37° NNW 02:00:37 37° NNW visible
29 Jun 10.9 01:02:09 10° NNE 01:04:47 26° NE 01:04:47 26° NE visible
29 Jun 11.2 02:48:35 10° NNW 02:51:15 16° NW 02:51:15 16° NW visible
30 Jun 10.4 01:52:01 10° N 01:55:26 37° NNW 01:55:26 37° NNW visible
01 Jul 11.0 00:57:15 10° NNE 00:59:36 23° NE 00:59:36 23° NE visible
01 Jul 11.1 02:43:24 10° NNW 02:46:04 17° NW 02:46:04 17° NW visible
02 Jul 10.4 01:47:00 10° N 01:50:14 36° N 01:50:14 36° N visible
03 Jul 11.2 00:52:21 10° NNE 00:54:24 21° NE 00:54:24 21° NE visible
03 Jul 11.1 02:38:14 10° NNW 02:40:53 19° NW 02:40:53 19° NW visible
04 Jul 10.5 01:41:59 10° N 01:45:02 35° N 01:45:02 35° N visible
05 Jul 11.3 00:47:27 10° NE 00:49:12 19° NE 00:49:12 19° NE visible
05 Jul 11.0 02:33:04 10° NNW 02:35:41 20° NW 02:35:41 20° NW visible
